Location: Czu?�w
(50.1404°N, 18.9919°E)
Time: 02:58:15
(UTC+00:00)

SeaSat 1 - Pass Details

Date: 27 October 2020
Orbit: 744 x 747 km, 108.0° (Epoch: 27 November)

Event Time Altitude Azimuth Distance (km) Brightness Sun altitude
Exits shadow 17:46:26 52° 132° (SE) 932 2.6 -22.6°
Maximum altitude 17:47:39 78° 57° (ENE) 769 2.3 -22.8°
Drops below altitude 10° 17:52:36 10° 332° (NNW) 2,275 5.4 -23.6°
Sets 17:54:52 0° 331° (NNW) 3,204 6.2 -23.9°
